When you browse on this site, cookies collect data to enhance your experience and personalize the content and advertising you see.
Visit our Privacy Policy to learn more. By continuing to use the site, you agree to this use of cookies and data.
  • In United Kingdom
  • List of Countries
  • For 7 days
  • Water Temperature
  • Weather Map
  • Weather Widgets
  • user-avatar
    Login

    Hourly Weather Nesebyr

    Today, 20 January, Monday

    Time Temperature Precipitation Wind Pressure Humidity
    00:00 -1°C° 0 mm 6 mps 771 mmHg 89%
    01:00 -1°C° 0 mm 6 mps 772 mmHg 89%
    02:00 -2°C° 0 mm 6 mps 772 mmHg 89%
    03:00 -2°C° 0 mm 6 mps 772 mmHg 88%
    04:00 -2°C° 0 mm 6 mps 773 mmHg 87%
    05:00 -2°C° 0 mm 6 mps 773 mmHg 87%
    06:00 -2°C° 0 mm 6 mps 774 mmHg 86%
    07:00 -3°C° 0 mm 6 mps 774 mmHg 85%
    08:00 -3°C° 0 mm 6 mps 775 mmHg 84%
    09:00 -2°C° 0 mm 6 mps 775 mmHg 79%
    10:00 -2°C° 0 mm 6 mps 776 mmHg 74%
    11:00 -1°C° 0 mm 7 mps 776 mmHg 69%
    12:00 +1°C° 0 mm 6 mps 776 mmHg 66%
    13:00 +1°C° 0 mm 6 mps 777 mmHg 64%
    14:00 +2°C° 0 mm 6 mps 777 mmHg 62%
    15:00 +1°C° 0 mm 6 mps 777 mmHg 65%
    16:00 0°C° 0 mm 5 mps 777 mmHg 68%
    17:00 0°C° 0 mm 5 mps 777 mmHg 71%
    18:00 -1°C° 0 mm 4 mps 778 mmHg 72%
    19:00 -1°C° 0 mm 4 mps 778 mmHg 73%
    20:00 -1°C° 0 mm 4 mps 779 mmHg 74%
    21:00 0°C° 0 mm 3 mps 779 mmHg 76%
    22:00 -1°C° 0 mm 3 mps 779 mmHg 77%
    23:00 -1°C° 0 mm 3 mps 779 mmHg 79%

    Tomorrow, 21 January, Tuesday

    Time Temperature Precipitation Wind Pressure Humidity
    00:00 -1°C° 0 mm 3 mps 779 mmHg 79%
    01:00 -1°C° 0 mm 3 mps 779 mmHg 80%
    02:00 -1°C° 0 mm 3 mps 779 mmHg 81%
    03:00 -1°C° 0 mm 3 mps 779 mmHg 81%
    04:00 -1°C° 0 mm 3 mps 778 mmHg 81%
    05:00 -1°C° 0 mm 3 mps 778 mmHg 82%
    06:00 -1°C° 0 mm 3 mps 778 mmHg 81%
    07:00 -1°C° 0 mm 2 mps 778 mmHg 81%
    08:00 -1°C° 0 mm 2 mps 778 mmHg 80%
    09:00 +1°C° 0 mm 2 mps 778 mmHg 73%
    10:00 +3°C° 0 mm 2 mps 778 mmHg 65%
    11:00 +3°C° 0 mm 3 mps 778 mmHg 58%
    12:00 +5°C° 0 mm 2 mps 777 mmHg 55%
    13:00 +6°C° 0 mm 2 mps 777 mmHg 53%
    14:00 +7°C° 0 mm 2 mps 777 mmHg 50%
    15:00 +6°C° 0 mm 2 mps 776 mmHg 55%
    16:00 +6°C° 0 mm 1 mps 776 mmHg 59%
    17:00 +4°C° 0 mm 1 mps 776 mmHg 64%
    18:00 +4°C° 0 mm 1 mps 776 mmHg 66%
    19:00 +3°C° 0 mm 1 mps 776 mmHg 68%
    20:00 +3°C° 0 mm 1 mps 775 mmHg 70%
    21:00 +3°C° 0 mm 1 mps 775 mmHg 70%
    22:00 +2°C° 0 mm 1 mps 775 mmHg 71%
    23:00 +1°C° 0 mm 2 mps 775 mmHg 71%

    Day after tomorrow, 22 January, Wednesday

    Time Temperature Precipitation Wind Pressure Humidity
    00:00 +1°C° 0 mm 2 mps 774 mmHg 71%
    01:00 +1°C° 0 mm 2 mps 774 mmHg 70%
    02:00 +1°C° 0 mm 2 mps 774 mmHg 70%
    03:00 +1°C° 0 mm 2 mps 773 mmHg 70%
    04:00 +1°C° 0 mm 2 mps 773 mmHg 69%
    05:00 +1°C° 0 mm 2 mps 772 mmHg 69%
    06:00 +1°C° 0 mm 2 mps 772 mmHg 68%
    07:00 +1°C° 0 mm 2 mps 772 mmHg 68%
    08:00 +1°C° 0 mm 2 mps 772 mmHg 67%
    09:00 +3°C° 0 mm 2 mps 771 mmHg 61%
    10:00 +5°C° 0 mm 2 mps 771 mmHg 54%
    11:00 +7°C° 0 mm 2 mps 771 mmHg 47%
    12:00 +7°C° 0 mm 3 mps 770 mmHg 46%
    13:00 +8°C° 0 mm 3 mps 769 mmHg 44%
    14:00 +9°C° 0 mm 3 mps 768 mmHg 43%
    15:00 +8°C° 0 mm 3 mps 767 mmHg 48%
    16:00 +7°C° 0 mm 3 mps 767 mmHg 54%
    17:00 +4°C° 0 mm 3 mps 766 mmHg 59%
    18:00 +4°C° 0 mm 3 mps 766 mmHg 60%
    19:00 +3°C° 0 mm 3 mps 765 mmHg 61%
    20:00 +2°C° 0 mm 3 mps 765 mmHg 61%
    21:00 +2°C° 0 mm 3 mps 765 mmHg 61%
    22:00 +2°C° 0 mm 3 mps 764 mmHg 62%
    23:00 +2°C° 0 mm 3 mps 764 mmHg 62%

    23 January, Thursday

    Time Temperature Precipitation Wind Pressure Humidity
    00:00 +1°C° 0 mm 3 mps 764 mmHg 61%
    01:00 +1°C° 0 mm 3 mps 764 mmHg 61%
    02:00 +1°C° 0 mm 3 mps 764 mmHg 61%
    03:00 +1°C° 0 mm 3 mps 764 mmHg 61%
    04:00 +1°C° 0 mm 3 mps 765 mmHg 62%
    05:00 0°C° 0 mm 3 mps 765 mmHg 63%
    06:00 +1°C° 0 mm 2 mps 766 mmHg 64%
    07:00 +1°C° 0 mm 2 mps 767 mmHg 66%
    08:00 +1°C° 0 mm 2 mps 768 mmHg 67%
    09:00 +2°C° 0 mm 2 mps 768 mmHg 63%
    10:00 +3°C° 0 mm 3 mps 769 mmHg 58%
    11:00 +5°C° 0 mm 3 mps 770 mmHg 53%
    12:00 +5°C° 0 mm 3 mps 770 mmHg 51%
    13:00 +6°C° 0 mm 4 mps 770 mmHg 49%
    14:00 +6°C° 0 mm 4 mps 770 mmHg 47%
    15:00 +5°C° 0 mm 4 mps 770 mmHg 50%
    16:00 +4°C° 0 mm 3 mps 770 mmHg 52%
    17:00 +3°C° 0 mm 3 mps 770 mmHg 55%
    18:00 +4°C° 0 mm 2 mps 771 mmHg 58%
    19:00 +3°C° 0 mm 2 mps 771 mmHg 62%
    20:00 +2°C° 0 mm 2 mps 772 mmHg 65%
    21:00 +2°C° 0 mm 2 mps 772 mmHg 67%
    22:00 +2°C° 0 mm 2 mps 773 mmHg 70%
    23:00 +2°C° 0 mm 2 mps 774 mmHg 72%

    24 January, Friday

    Time Temperature Precipitation Wind Pressure Humidity
    00:00 +1°C° 0 mm 2 mps 774 mmHg 73%
    01:00 +1°C° 0 mm 2 mps 774 mmHg 75%
    02:00 +1°C° 0 mm 2 mps 774 mmHg 76%
    03:00 +1°C° 0 mm 1 mps 774 mmHg 76%
    04:00 +1°C° 0 mm 1 mps 773 mmHg 76%
    05:00 +1°C° 0 mm 1 mps 773 mmHg 76%
    06:00 +1°C° 0 mm 1 mps 773 mmHg 75%
    07:00 +1°C° 0 mm 1 mps 774 mmHg 74%
    08:00 +1°C° 0 mm 1 mps 774 mmHg 74%
    09:00 +3°C° 0 mm 1 mps 774 mmHg 67%
    10:00 +4°C° 0 mm 2 mps 774 mmHg 60%
    11:00 +5°C° 0 mm 2 mps 774 mmHg 53%
    12:00 +5°C° 0 mm 3 mps 773 mmHg 52%
    13:00 +7°C° 0 mm 3 mps 772 mmHg 50%
    14:00 +7°C° 0 mm 3 mps 772 mmHg 49%
    15:00 +5°C° 0 mm 3 mps 771 mmHg 53%
    16:00 +4°C° 0 mm 3 mps 771 mmHg 58%
    17:00 +3°C° 0 mm 3 mps 771 mmHg 62%
    18:00 +3°C° 0 mm 3 mps 771 mmHg 64%
    19:00 +2°C° 0 mm 3 mps 770 mmHg 66%
    20:00 +1°C° 0 mm 3 mps 770 mmHg 68%
    21:00 +1°C° 0 mm 3 mps 770 mmHg 69%
    22:00 +1°C° 0 mm 3 mps 770 mmHg 71%
    23:00 0°C° 0 mm 3 mps 770 mmHg 72%

    25 January, Saturday

    Time Temperature Precipitation Wind Pressure Humidity
    00:00 0°C° 0 mm 3 mps 769 mmHg 75%
    01:00 0°C° 0 mm 3 mps 768 mmHg 78%
    02:00 0°C° 0 mm 3 mps 768 mmHg 80%
    03:00 0°C° 0 mm 3 mps 768 mmHg 82%
    04:00 0°C° 0 mm 3 mps 767 mmHg 84%
    05:00 -1°C° 0 mm 3 mps 767 mmHg 86%
    06:00 0°C° 0 mm 3 mps 767 mmHg 87%
    07:00 0°C° 0 mm 3 mps 767 mmHg 88%
    08:00 0°C° 0 mm 3 mps 767 mmHg 89%
    09:00 +2°C° 0 mm 3 mps 767 mmHg 82%
    10:00 +4°C° 0 mm 4 mps 766 mmHg 74%
    11:00 +6°C° 0 mm 4 mps 766 mmHg 67%
    12:00 +7°C° 0 mm 4 mps 766 mmHg 65%
    13:00 +8°C° 0 mm 4 mps 765 mmHg 63%
    14:00 +10°C° 0 mm 4 mps 765 mmHg 61%
    15:00 +8°C° 0 mm 4 mps 765 mmHg 66%
    16:00 +8°C° 0 mm 3 mps 765 mmHg 70%
    17:00 +7°C° 0 mm 3 mps 765 mmHg 75%
    18:00 +5°C° 0 mm 3 mps 765 mmHg 77%
    19:00 +5°C° 0 mm 3 mps 765 mmHg 80%
    20:00 +4°C° 0 mm 3 mps 765 mmHg 82%
    21:00 +4°C° 0 mm 3 mps 765 mmHg 82%
    22:00 +5°C° 0 mm 3 mps 765 mmHg 83%
    23:00 +5°C° 0 mm 3 mps 765 mmHg 83%
    Show more